Find Starlink 37103

NORAD ID: 68267 Int'l Des: 2026-055 Owner: SPXS Country: US Constellation: starlink operational
LEOCIRCULAR

Live Position

Loading 3D Globe...

About Starlink 37103

Description loading...

Upcoming Passes

Passes for default location (London). Set your location on the main map for personalized predictions.

Altitude History

Loading altitude history...

Two-Line Element Set

1 68267U 26055F 26124.51500920 .00090046 00000-0 16071-2 0 9990
2 68267 53.1591 60.2844 0001488 76.4119 283.7055 15.49332469 8473
Epoch: May 4, 2026 • Age: 9 hours

Current Status

Altitude 438.0 km
Velocity 7.65 km/s
Sub-Earth Point -53.29°S, 149.25°E
Launch Date Mar 19, 2026
Age 0.1 years
Type internet

Technical Details

Classification Payload
Mass 575.00 kg
Dry Mass 530.00 kg
Total Mass 575.00 kg
Length 0.30 m
Diameter 4.10 m
Span 29.00 m
Shape Box + pan
Manufacturer SPXS
Bus Type Starlink V2MO
Phase Status In Orbit
Owner/State SPXS/US

Most Searched